Temp
-4 -4 -4 -4 -4 -3 -3 -3 -3 -3 -3 -3 -3 -2 -2 -1 -1 -1 -1 -1 -1 -0 1 2 3 3 4 4 2 3 2 2 1 2 2 2 3 5 5 7 6 5 4 4 4 4 4 2 2 3 1 -1 0 1
-4 -4 -4 -4 -3 -3 -3 -3 -3 -3 -3 -3 -3 -3 -2 -2 -1 -1 -2 -2 -1 -1 -0 2 2 3 3 4 4 3 3 2 2 1 2 3 3 3 6 5 6 5 5 4 3 2 -0 0 0 2 2 1 -1 -1
-4 -4 -4 -4 -4 -3 -3 -3 -3 -3 -3 -3 -3 -3 -3 -2 -1 -1 -2 -2 -2 -1 -0 1 1 2 3 3 4 3 1 5 4 6 4 3 4 5 4 4 4 4 4 1 1 -0 -1 -0 -0 0 1 1 -1 -1
-4 -3 -3 -3 -3 -3 -3 -3 -3 -3 -3 -3 -3 -3 -3 -2 -2 -1 -2 -1 -1 -1 -0 1 2 2 2 3 4 4 4 5 6 5 3 2 3 5 4 4 3 3 3 1 0 -0 -1 -1 -1 -1 -2 -1 -2 -3
-3 -3 -4 -4 -3 -3 -3 -3 -3 -3 -3 -3 -3 -3 -3 -2 -2 -2 -2 -2 -1 -0 0 0 1 1 2 3 4 4 3 4 5 3 1 1 4 4 3 3 2 3 1 0 0 0 -0 -1 -2 -1 -2 -3 -3 -4
-2 -2 -2 -2 -3 -3 -3 -3 -3 -3 -3 -3 -3 -3 -3 -2 -2 -3 -1 -1 -1 -0 1 0 1 1 2 3 3 4 4 5 4 3 4 5 5 5 1 0 2 3 4 4 2 0 1 -1 -2 -2 -3 -3 -3 -4
-2 -2 -2 -2 -2 -3 -3 -2 -1 -1 -1 -1 -1 -3 -3 -2 -2 -2 -0 0 -0 -1 0 -0 0 0 1 1 3 3 4 3 2 3 3 4 5 5 -1 1 2 2 2 2 2 -0 -3 -3 -3 -3 -3 -3 -4 -4
-2 -2 -2 -1 -1 -1 -1 -1 0 2 2 2 1 -0 -1 -2 -1 -1 -0 1 0 -0 0 0 1 0 0 0 1 2 3 3 4 5 4 3 4 3 1 1 1 1 1 1 0 -0 -0 -2 -3 -4 -3 -4 -5 -5
-2 -2 -2 -1 -1 -0 -0 -0 -0 3 3 2 1 0 -0 -1 -0 -0 -0 1 -0 0 -0 -0 0 1 2 3 4 4 4 1 4 1 2 3 -0 2 2 0 -0 0 1 -0 -0 -1 -2 -3 -4 -4 -4 -4 -4 -5
-2 -2 -1 -1 -1 -0 1 -1 -1 -0 1 1 1 -0 -1 -0 0 -0 0 0 0 -0 1 -0 1 -0 3 3 2 3 3 1 1 2 4 0 1 3 4 3 2 1 1 0 -2 -3 -4 -4 -4 -4 -4 -4 -4 -5
-2 -2 -1 -0 -1 0 1 1 1 1 1 2 0 -0 0 0 0 -0 -1 -0 -0 0 1 2 2 2 3 2 1 3 0 -0 1 1 1 0 1 0 2 2 2 1 1 0 -0 -1 -3 -3 -3 -4 -4 -4 -4 -5
-2 -2 -2 -1 0 2 3 4 4 3 2 1 0 -0 0 2 1 1 -0 0 -0 1 1 2 3 3 4 4 1 1 1 -1 1 0 -1 -0 -1 2 2 2 1 1 0 -0 -1 -1 -2 -2 -3 -3 -4 -4 -5 -5
-0 0 1 1 2 3 2 3 3 3 4 4 5 3 3 1 -1 -1 -2 -1 0 -0 2 3 1 3 3 4 0 -1 -0 -1 0 -3 -0 -1 0 1 2 1 1 0 0 -1 -1 -1 -2 -2 -3 -3 -4 -4 -5 -6
0 1 2 2 2 2 2 3 4 5 6 2 0 -2 -2 -2 -0 -0 -0 -0 1 2 2 3 1 1 1 -2 -4 -1 -2 -1 -1 -2 1 -3 -0 1 1 1 1 0 -0 -0 -1 -1 -2 -2 -3 -4 -4 -4 -5 -6
1 2 2 2 2 3 4 5 5 6 2 0 0 -2 -2 -2 -1 -1 0 1 1 2 3 2 0 1 -3 -2 -2 -1 -0 -1 -0 -1 -2 -0 1 1 1 1 1 0 0 -0 -1 -1 -2 -3 -3 -4 -5 -6 -6 -6
2 2 2 2 3 4 4 5 5 3 1 -0 -1 -2 -2 -0 -0 0 1 2 3 4 4 3 -1 -2 -1 -1 -1 -2 0 -1 -2 -1 -2 -0 0 1 1 1 1 0 -0 -1 -1 -2 -2 -3 -4 -5 -6 -6 -7 -7
2 1 1 3 4 4 5 5 1 -0 -1 -1 -2 -2 -2 -1 -1 -0 1 3 4 4 -2 -1 -1 0 -1 -1 -0 -0 -1 -2 -2 -2 -2 -0 0 0 0 0 -0 -1 -1 -2 -2 -3 -4 -5 -5 -6 -6 -7 -8 -8
1 1 2 3 4 5 4 1 0 -1 -2 -2 -2 -2 -1 -1 -0 0 2 3 4 3 3 1 2 0 -3 -0 -1 -2 -3 -3 -2 -2 -1 -1 -0 -0 -1 -1 -1 -2 -2 -3 -4 -4 -5 -5 -6 -6 -7 -7 -8 -9
1 2 2 3 4 3 0 -0 -0 -2 -3 -2 -2 -2 -1 -1 -0 2 2 3 3 3 3 1 -1 -0 -1 -2 -3 -3 -3 -3 -4 -3 -2 -2 -2 -2 -2 -3 -3 -4 -4 -4 -4 -5 -5 -6 -6 -7 -7 -7 -8 -9
1 2 3 3 3 1 -1 -1 -1 -1 -2 -2 -2 -2 -1 -1 0 1 2 2 2 1 -1 -1 -1 -2 -1 -1 -1 -3 -3 -3 -3 -4 -4 -4 -3 -4 -4 -5 -5 -6 -5 -5 -6 -6 -7 -7 -8 -8 -8 -8 -9 -9
2 1 2 3 1 -1 -2 -2 -2 -2 -2 -2 -2 -1 -1 0 0 0 0 0 -1 -2 -2 -2 -2 -2 -3 -3 -3 -3 -4 -4 -5 -4 -4 -5 -5 -5 -6 -6 -7 -6 -5 -5 -6 -7 -7 -7 -8 -8 -9 -9 -9 -10
1 2 1 0 -1 -2 -2 -2 -1 -1 -2 -2 -1 -1 -1 -2 -1 -1 -1 -2 -3 -3 -2 -2 -3 -3 -3 -3 -3 -3 -3 -3 -3 -4 -5 -5 -6 -6 -7 -7 -7 -6 -7 -7 -7 -7 -8 -8 -8 -8 -9 -9 -9 -10
1 1 -1 -1 -1 -1 -2 -1 -1 -1 -4 -2 -0 -3 -3 -2 -1 -0 -3 -3 -3 -3 -2 -2 -3 -3 -3 -4 -4 -3 -3 -3 -4 -5 -6 -6 -6 -7 -7 -7 -7 -7 -8 -8 -8 -8 -8 -8 -8 -8 -9 -9 -10 -10
-0 -2 -2 -2 -2 -5 -2 -1 -1 -1 -1 -3 -4 -4 -4 -2 -1 -1 -4 -4 -4 -4 -3 -3 -3 -3 -4 -4 -4 -4 -5 -5 -6 -6 -6 -6 -6 -7 -7 -7 -7 -7 -8 -8 -8 -8 -8 -9 -9 -9 -9 -10 -10 -11
-2 -4 -2 -9 -2 -4 -9 -9 -7 -5 -6 -5 -5 -6 -5 -1 -5 -4 -5 -5 -4 -4 -4 -4 -4 -3 -3 -4 -5 -5 -6 -5 -6 -6 -6 -6 -6 -7 -7 -7 -7 -8 -8 -8 -8 -8 -9 -9 -9 -10 -10 -11 -11 -12
-9 -4 -6 -5 -7 -6 -6 -7 -7 -7 -7 -8 -7 -3 -2 -7 -5 -5 -4 -5 -5 -5 -4 -4 -3 -4 -4 -4 -5 -5 -5 -6 -6 -7 -7 -7 -7 -7 -7 -8 -8 -8 -8 -8 -8 -8 -9 -9 -10 -11 -11 -12 -12 -13
-8 -9 -3 -3 -3 -2 -5 -2 -2 -6 -7 -7 -5 -7 -8 -6 -6 -6 -6 -6 -5 -5 -5 -4 -4 -4 -4 -5 -6 -6 -6 -6 -6 -6 -7 -7 -7 -8 -8 -8 -8 -8 -8 -9 -9 -9 -10 -10 -11 -11 -12 -13 -13 -14
-4 -4 -9 -5 -3 -3 -10 -11 -10 -7 -8 -4 -3 -6 -7 -7 -6 -6 -6 -7 -7 -7 -6 -5 -5 -5 -5 -6 -6 -6 -7 -7 -7 -7 -7 -8 -8 -8 -9 -9 -9 -9 -9 -10 -10 -10 -11 -11 -12 -12 -13 -13 -14 -14
-4 -4 -4 -8 -4 -4 -6 -8 -5 -5 -5 -4 -7 -9 -7 -7 -7 -8 -8 -8 -8 -8 -6 -6 -6 -6 -6 -6 -7 -8 -7 -7 -7 -8 -8 -8 -9 -9 -9 -9 -9 -10 -10 -10 -11 -11 -12 -12 -13 -13 -13 -14 -14 -15
-5 -5 -4 -6 -12 -8 -6 -6 -6 -6 -6 -5 -5 -6 -7 -8 -9 -8 -8 -8 -8 -8 -7 -7 -7 -7 -7 -8 -7 -8 -8 -8 -8 -9 -8 -8 -9 -9 -10 -10 -10 -10 -11 -11 -11 -11 -12 -12 -13 -13 -14 -14 -15 -16
-6 -5 -4 -5 -6 -6 -7 -7 -7 -7 -7 -6 -6 -5 -6 -7 -9 -9 -9 -8 -8 -8 -8 -8 -8 -8 -8 -9 -8 -8 -8 -8 -9 -9 -9 -9 -9 -9 -10 -10 -11 -11 -11 -11 -12 -12 -12 -13 -13 -14 -15 -15 -16 -16
-5 -5 -5 -9 -6 -6 -7 -7 -6 -6 -5 -6 -6 -6 -6 -7 -7 -9 -10 -10 -9 -9 -9 -8 -8 -8 -8 -8 -9 -9 -9 -9 -9 -9 -9 -9 -9 -10 -11 -11 -11 -11 -12 -12 -12 -13 -13 -14 -14 -15 -15 -16 -17 -17
-5 -5 -5 -5 -6 -6 -6 -7 -6 -6 -6 -6 -7 -7 -7 -7 -9 -10 -11 -11 -10 -10 -9 -9 -9 -9 -9 -9 -9 -9 -9 -9 -10 -10 -10 -10 -10 -11 -11 -11 -11 -12 -12 -13 -13 -14 -14 -15 -15 -16 -16 -17 -17 -17
Height
1310 1315 1320 1325 1330 1336 1342 1348 1355 1362 1369 1377 1385 1394 1403 1412 1421 1428 1430 1439 1445 1447 1450 1454 1459 1460 1462 1465 1470 1471 1476 1475 1480 1481 1483 1482 1478 1472 1472 1465 1465 1471 1477 1475 1482 1483 1476 1472 1474 1475 1474 1474 1473 1476
1298 1303 1308 1313 1319 1325 1331 1337 1343 1350 1358 1366 1375 1384 1393 1403 1412 1422 1425 1434 1443 1448 1447 1449 1451 1455 1458 1462 1466 1466 1465 1464 1467 1473 1476 1473 1469 1465 1461 1466 1456 1464 1463 1468 1471 1471 1472 1471 1472 1472 1472 1473 1476 1477
1285 1290 1296 1301 1307 1313 1319 1325 1331 1338 1346 1354 1364 1374 1384 1394 1404 1412 1420 1431 1441 1446 1447 1448 1442 1448 1452 1454 1459 1461 1463 1460 1460 1461 1462 1465 1463 1458 1462 1461 1460 1460 1460 1468 1472 1473 1472 1472 1473 1473 1474 1474 1477 1480
1269 1275 1281 1287 1293 1299 1305 1311 1317 1324 1331 1341 1351 1362 1373 1385 1396 1406 1410 1422 1433 1441 1439 1434 1438 1440 1444 1446 1448 1450 1453 1457 1457 1458 1460 1461 1459 1455 1457 1455 1455 1456 1458 1464 1469 1471 1472 1472 1472 1474 1475 1477 1478 1481
1252 1258 1265 1272 1279 1286 1290 1295 1300 1307 1314 1324 1335 1348 1361 1375 1388 1401 1411 1418 1428 1436 1431 1434 1435 1434 1437 1440 1442 1445 1448 1452 1452 1456 1461 1461 1454 1454 1454 1455 1455 1451 1455 1461 1460 1457 1461 1465 1469 1472 1475 1477 1479 1481
1246 1252 1257 1264 1270 1276 1279 1280 1283 1285 1291 1301 1315 1331 1348 1365 1384 1401 1411 1416 1421 1426 1433 1431 1429 1430 1432 1433 1439 1441 1444 1446 1448 1453 1452 1449 1448 1452 1457 1457 1450 1449 1449 1450 1452 1454 1459 1463 1469 1472 1475 1477 1480 1483
1249 1254 1259 1263 1266 1268 1265 1262 1257 1251 1255 1269 1287 1309 1334 1356 1374 1376 1379 1383 1407 1425 1434 1431 1428 1428 1431 1435 1435 1438 1441 1444 1449 1452 1448 1445 1446 1446 1451 1452 1448 1449 1450 1450 1451 1454 1463 1464 1466 1471 1475 1478 1482 1485
1254 1257 1261 1262 1262 1261 1260 1254 1230 1202 1208 1235 1269 1300 1324 1348 1374 1384 1389 1396 1410 1423 1426 1426 1425 1427 1428 1431 1434 1438 1440 1443 1444 1442 1442 1442 1444 1445 1448 1444 1445 1447 1449 1451 1453 1455 1457 1462 1467 1471 1475 1479 1482 1485
1259 1261 1263 1265 1265 1264 1261 1249 1228 1208 1207 1227 1265 1303 1329 1349 1362 1369 1393 1401 1410 1419 1418 1419 1418 1420 1426 1428 1431 1436 1437 1440 1439 1439 1439 1440 1443 1443 1437 1440 1442 1444 1446 1449 1454 1456 1458 1462 1465 1470 1474 1478 1481 1484
1266 1267 1267 1267 1269 1269 1265 1259 1251 1247 1246 1257 1283 1306 1323 1338 1356 1375 1396 1399 1408 1412 1410 1409 1412 1415 1418 1423 1429 1436 1437 1438 1441 1438 1436 1438 1438 1433 1433 1436 1439 1443 1446 1448 1452 1457 1459 1462 1465 1470 1473 1477 1480 1484
1276 1275 1275 1276 1277 1279 1281 1275 1272 1272 1276 1285 1296 1313 1330 1343 1358 1373 1380 1387 1393 1396 1396 1400 1404 1403 1417 1419 1425 1429 1433 1435 1439 1436 1437 1439 1434 1431 1433 1436 1441 1444 1446 1449 1453 1455 1458 1460 1464 1470 1475 1478 1480 1483
1286 1287 1288 1288 1288 1288 1286 1285 1287 1289 1293 1297 1306 1325 1338 1347 1355 1366 1374 1377 1379 1384 1390 1395 1401 1406 1417 1421 1424 1429 1431 1435 1435 1431 1437 1436 1427 1426 1431 1436 1441 1444 1447 1450 1453 1456 1459 1463 1468 1471 1475 1477 1480 1483
1298 1298 1299 1300 1299 1298 1298 1298 1301 1305 1309 1314 1320 1327 1336 1348 1360 1366 1375 1377 1376 1377 1385 1390 1403 1409 1415 1418 1423 1427 1433 1435 1430 1439 1434 1427 1424 1427 1432 1437 1442 1446 1449 1452 1454 1458 1461 1465 1468 1471 1474 1477 1480 1483
1307 1307 1307 1308 1308 1310 1312 1311 1315 1316 1318 1322 1331 1346 1351 1359 1361 1362 1363 1366 1371 1375 1384 1393 1401 1406 1414 1420 1424 1429 1430 1429 1437 1441 1424 1424 1424 1428 1433 1437 1441 1446 1449 1452 1455 1459 1462 1465 1468 1471 1474 1476 1479 1481
1317 1316 1317 1317 1319 1320 1321 1321 1322 1323 1327 1338 1345 1361 1363 1361 1360 1360 1361 1365 1373 1378 1383 1395 1403 1408 1416 1422 1423 1426 1429 1432 1426 1424 1421 1420 1425 1429 1434 1438 1442 1446 1449 1453 1456 1459 1462 1465 1468 1470 1473 1475 1478 1480
1325 1324 1324 1326 1328 1329 1330 1331 1330 1330 1342 1350 1360 1366 1366 1364 1366 1367 1370 1375 1381 1385 1391 1396 1405 1413 1417 1417 1419 1423 1420 1422 1420 1418 1419 1422 1426 1431 1435 1440 1444 1447 1450 1452 1456 1458 1461 1464 1467 1469 1472 1474 1477 1480
1332 1332 1333 1334 1334 1334 1334 1334 1338 1347 1356 1364 1371 1370 1370 1371 1373 1375 1378 1381 1386 1390 1396 1398 1407 1409 1410 1415 1416 1415 1418 1417 1417 1419 1421 1424 1428 1432 1436 1441 1444 1448 1451 1453 1456 1458 1461 1463 1466 1468 1470 1473 1476 1480
1339 1340 1340 1340 1340 1339 1338 1342 1351 1363 1372 1376 1376 1377 1376 1376 1378 1381 1384 1387 1390 1393 1396 1399 1400 1406 1416 1412 1414 1416 1418 1419 1420 1422 1425 1428 1431 1434 1438 1441 1445 1448 1451 1453 1455 1457 1459 1462 1464 1467 1470 1472 1475 1478
1345 1344 1344 1344 1344 1344 1351 1359 1363 1375 1381 1381 1381 1380 1382 1384 1386 1387 1389 1391 1393 1395 1397 1400 1407 1410 1411 1412 1414 1415 1418 1420 1422 1425 1427 1430 1433 1436 1439 1442 1445 1447 1449 1452 1453 1455 1458 1461 1464 1467 1469 1471 1474 1477
1350 1349 1349 1349 1349 1352 1363 1371 1374 1380 1386 1388 1386 1387 1389 1391 1391 1392 1393 1395 1396 1398 1404 1409 1412 1414 1413 1414 1415 1417 1420 1422 1424 1426 1429 1432 1435 1437 1439 1441 1443 1446 1448 1450 1453 1455 1458 1461 1464 1467 1469 1472 1474 1476
1356 1354 1354 1353 1353 1361 1373 1379 1383 1387 1389 1391 1392 1393 1395 1395 1395 1396 1398 1399 1400 1407 1413 1416 1417 1417 1417 1418 1419 1420 1422 1424 1425 1427 1428 1431 1435 1437 1439 1441 1443 1445 1447 1449 1452 1455 1458 1461 1464 1466 1469 1471 1474 1476
1359 1359 1358 1360 1365 1373 1382 1386 1388 1391 1393 1396 1396 1398 1400 1402 1402 1403 1404 1405 1413 1416 1417 1419 1420 1420 1421 1422 1423 1425 1425 1426 1427 1428 1430 1433 1435 1437 1439 1441 1443 1445 1447 1450 1452 1455 1458 1460 1463 1466 1468 1470 1472 1474
1363 1362 1365 1369 1374 1382 1392 1390 1391 1393 1397 1399 1401 1404 1407 1406 1407 1407 1412 1418 1420 1421 1421 1422 1423 1424 1424 1425 1425 1427 1427 1428 1429 1429 1430 1434 1437 1439 1441 1443 1445 1446 1448 1451 1454 1456 1458 1460 1463 1465 1467 1469 1471 1473
1369 1372 1377 1380 1385 1391 1393 1394 1396 1397 1398 1401 1405 1410 1410 1410 1410 1411 1418 1422 1424 1424 1423 1425 1426 1427 1428 1428 1429 1430 1431 1431 1431 1433 1434 1436 1438 1441 1443 1445 1446 1448 1449 1451 1453 1456 1458 1461 1463 1465 1467 1468 1470 1471
1377 1388 1389 1391 1392 1395 1400 1401 1400 1401 1407 1406 1410 1413 1412 1411 1414 1416 1422 1424 1424 1425 1426 1426 1428 1430 1430 1430 1431 1432 1433 1433 1434 1435 1437 1438 1440 1442 1444 1445 1446 1448 1450 1451 1453 1455 1458 1460 1462 1464 1466 1467 1468 1470
1394 1397 1398 1399 1400 1400 1402 1407 1407 1408 1408 1413 1414 1413 1412 1413 1418 1423 1423 1425 1426 1426 1427 1427 1428 1429 1431 1433 1433 1433 1434 1434 1435 1437 1438 1440 1441 1443 1444 1445 1446 1448 1450 1452 1453 1455 1457 1459 1461 1462 1464 1465 1466 1468
1404 1404 1403 1403 1402 1401 1404 1404 1406 1407 1412 1417 1414 1415 1417 1422 1424 1425 1425 1425 1426 1427 1428 1428 1429 1430 1431 1433 1434 1434 1434 1435 1437 1438 1439 1440 1442 1443 1445 1445 1446 1448 1449 1451 1453 1455 1456 1458 1459 1461 1462 1464 1465 1465
1405 1406 1408 1407 1405 1405 1408 1409 1412 1415 1415 1415 1415 1419 1423 1423 1425 1425 1425 1426 1426 1427 1428 1428 1429 1430 1431 1432 1433 1434 1434 1436 1437 1438 1439 1441 1442 1443 1445 1446 1447 1448 1450 1451 1453 1454 1455 1457 1458 1460 1461 1461 1462 1463
1409 1410 1410 1410 1409 1410 1413 1414 1416 1417 1417 1416 1417 1421 1422 1423 1425 1425 1425 1425 1425 1426 1428 1429 1430 1430 1430 1431 1432 1434 1435 1436 1437 1438 1440 1440 1442 1443 1444 1446 1447 1448 1450 1452 1453 1455 1456 1457 1458 1458 1459 1460 1461 1461
1414 1413 1413 1413 1415 1417 1418 1418 1418 1418 1418 1418 1419 1421 1422 1424 1425 1425 1425 1426 1426 1428 1429 1430 1430 1430 1430 1431 1431 1433 1434 1436 1437 1439 1440 1441 1442 1443 1444 1446 1447 1449 1450 1451 1453 1454 1455 1456 1457 1457 1458 1459 1459 1460
1416 1415 1415 1416 1418 1420 1420 1419 1419 1419 1419 1420 1420 1421 1422 1423 1424 1424 1425 1425 1426 1427 1428 1429 1430 1430 1431 1431 1432 1433 1434 1436 1437 1439 1440 1441 1442 1442 1444 1445 1447 1448 1450 1451 1452 1453 1454 1455 1456 1456 1457 1458 1458 1458
1418 1418 1418 1419 1419 1421 1419 1420 1420 1420 1420 1420 1421 1422 1423 1423 1424 1423 1421 1422 1423 1425 1426 1427 1428 1429 1430 1431 1432 1433 1434 1435 1436 1438 1439 1440 1441 1442 1444 1445 1447 1448 1450 1451 1452 1453 1454 1455 1455 1456 1457 1457 1457 1457
1419 1419 1419 1420 1420 1420 1420 1421 1420 1420 1419 1419 1420 1420 1420 1421 1421 1422 1420 1420 1421 1422 1423 1424 1426 1427 1428 1430 1431 1432 1433 1434 1435 1437 1439 1440 1441 1442 1444 1446 1447 1449 1450 1451 1452 1453 1453 1454 1455 1455 1456 1456 1456 1456
Wind_Speed
39 39 39 38 39 39 38 38 37 40 42 42 41 40 40 40 40 41 44 42 42 8 10 27 33 17 5 19 5 5 4 0 3 4 3 4 4 5 5 9 4 8 6 6 4 3 9 3 1 5 2 8 10 18
38 38 39 39 39 38 38 38 38 41 42 45 46 45 43 44 43 43 40 42 39 28 6 25 25 24 27 32 17 13 5 7 12 3 4 4 3 3 4 7 2 6 5 4 3 4 3 3 4 5 8 12 9 14
45 44 43 43 42 42 41 41 41 40 44 44 45 45 45 46 44 48 43 31 33 32 26 38 27 21 30 35 25 16 10 14 11 10 6 1 3 3 2 4 3 4 4 3 4 3 7 9 10 10 9 8 10 9
48 48 48 47 46 45 46 46 46 45 45 48 50 50 49 48 48 46 49 47 39 15 7 7 22 47 29 24 33 33 25 17 14 12 4 2 2 1 3 2 3 4 6 6 2 4 7 8 10 11 11 12 12 12
35 40 45 48 48 47 47 48 51 50 49 51 53 53 52 52 50 45 46 48 44 35 5 9 12 21 25 30 27 32 26 27 17 6 2 3 4 2 2 2 2 3 5 4 5 16 6 13 18 14 13 14 13 18
22 25 28 33 36 37 39 43 49 55 59 60 60 60 58 53 49 44 34 44 52 40 7 3 12 9 18 26 25 24 24 19 10 4 6 7 5 6 3 2 2 3 9 9 6 21 9 20 21 16 20 19 19 19
20 18 15 18 23 27 32 32 33 43 51 58 63 67 67 58 58 66 23 36 59 40 16 2 3 12 17 21 14 15 18 11 8 9 7 6 6 8 2 3 10 9 9 10 16 22 16 24 17 19 20 19 18 16
17 15 14 12 16 12 8 14 24 19 42 63 64 59 64 69 55 61 31 27 56 36 8 2 3 7 14 7 5 8 6 13 10 9 5 4 5 3 2 4 17 16 15 16 20 2 11 22 20 21 18 20 21 21
18 16 18 19 15 22 28 32 46 33 34 51 70 64 53 64 45 45 46 35 52 16 8 4 3 3 16 10 10 7 5 1 1 2 3 5 1 3 5 18 22 22 16 16 14 7 19 23 24 23 23 24 23 20
29 28 24 27 26 33 33 27 30 56 74 80 77 46 13 30 39 48 43 26 20 16 14 3 9 3 18 11 2 6 6 3 2 4 5 2 3 4 12 23 22 20 13 19 20 20 22 22 26 27 27 24 20 20
35 35 33 30 34 33 26 22 23 33 49 42 31 36 68 62 41 9 7 6 9 3 6 7 19 12 15 5 3 5 3 2 2 3 4 2 3 5 18 21 18 17 13 17 14 15 21 24 28 26 23 19 17 17
35 34 31 31 25 23 21 20 24 40 40 43 44 41 26 8 5 6 3 3 3 5 6 12 19 27 11 10 4 2 2 2 4 3 3 3 3 17 24 23 21 18 19 18 13 14 19 20 22 21 20 19 16 15
28 28 26 24 22 26 38 46 56 56 43 29 14 7 5 6 7 5 4 1 3 4 16 24 11 10 7 4 5 3 3 4 1 2 3 3 9 23 25 25 21 17 17 15 15 15 17 20 19 18 18 18 16 16
21 17 20 23 21 31 38 38 31 23 20 12 8 7 4 3 3 2 2 4 6 26 32 27 10 5 5 4 2 4 3 2 1 1 4 2 21 27 26 24 23 22 18 16 18 17 17 16 17 16 14 15 16 17
20 17 18 24 21 22 22 17 13 10 10 8 7 5 4 3 5 5 9 19 27 33 30 14 7 6 2 3 1 3 3 3 5 4 2 16 28 28 25 24 25 24 20 18 16 16 15 15 15 16 14 13 14 16
20 21 21 17 18 18 13 7 9 14 7 7 9 4 3 4 8 16 24 24 32 30 17 8 4 4 2 3 3 5 5 5 3 2 11 28 30 26 25 22 19 21 20 19 18 16 15 15 15 14 15 15 15 15
19 24 19 15 14 11 8 14 10 10 8 6 5 11 8 8 9 13 21 18 20 13 2 4 3 4 3 2 2 2 3 1 8 12 19 26 26 24 22 20 18 17 17 17 16 15 14 15 15 16 17 18 17 15
19 12 11 15 14 15 23 15 8 9 8 10 4 7 14 14 17 19 17 13 11 4 3 3 5 3 2 3 3 2 5 11 12 15 17 19 19 17 17 18 18 16 16 15 14 14 15 16 16 16 16 18 18 17
16 10 7 10 7 10 8 10 9 6 8 5 7 12 15 16 20 16 13 12 11 7 6 4 4 2 1 2 3 10 15 14 16 15 15 15 15 17 17 16 16 18 16 14 14 14 14 13 14 15 16 16 16 15
13 10 6 6 6 8 7 7 7 7 4 4 8 13 9 7 14 20 15 14 11 5 6 3 2 3 4 6 6 14 13 13 17 18 15 15 16 16 15 15 15 15 13 13 13 13 15 15 14 13 12 13 15 14
12 14 14 12 25 13 8 5 7 5 5 5 11 9 6 13 15 16 12 8 8 5 3 7 15 10 8 10 9 9 11 14 17 16 20 19 17 15 15 15 14 13 13 14 14 15 16 15 15 13 11 13 12 11
12 12 15 14 9 7 8 8 5 5 5 4 5 6 5 4 6 12 7 13 5 6 5 12 12 13 14 12 9 7 8 9 8 7 13 15 17 16 16 14 11 12 12 12 12 15 18 15 13 13 13 12 11 13
9 12 10 10 7 6 3 6 4 4 3 2 3 3 3 3 5 5 6 5 5 8 13 11 11 10 12 10 8 8 6 6 9 9 14 14 11 10 11 9 7 11 14 13 12 15 17 12 11 12 14 14 14 13
10 7 7 6 8 2 3 5 3 3 4 3 3 2 2 3 4 5 3 3 7 10 12 11 9 13 11 8 10 9 6 4 11 10 12 12 10 10 10 8 9 10 9 13 14 14 14 13 15 17 15 13 11 10
7 9 6 5 6 5 4 4 4 4 3 2 3 3 2 2 2 2 2 2 6 4 6 9 10 6 7 6 6 7 6 6 10 11 9 8 10 11 10 9 10 10 12 13 14 15 14 14 15 14 12 11 10 10
6 10 4 3 4 4 1 2 2 1 2 3 1 2 3 2 3 2 2 4 6 5 6 8 9 11 6 3 4 8 9 7 9 11 10 8 9 10 12 14 13 13 12 9 9 14 14 15 13 12 11 10 10 10
5 3 5 6 3 3 4 5 5 5 3 2 0 1 3 3 2 2 2 3 4 5 5 7 9 7 4 6 6 7 8 7 6 7 9 9 8 7 5 5 11 9 12 11 10 8 9 11 11 11 10 10 10 9
6 8 3 9 7 7 3 3 3 2 1 4 2 3 3 1 1 2 2 4 5 7 7 6 7 6 6 6 7 7 10 10 8 7 9 9 9 10 9 7 7 8 9 9 6 5 5 6 7 8 8 8 8 8
6 6 4 6 5 6 6 2 2 3 5 3 2 1 3 3 2 2 3 5 4 8 11 9 8 8 6 5 7 9 9 9 8 10 11 12 14 13 10 7 7 7 7 8 8 6 5 6 6 6 6 6 5 5
6 7 3 3 3 2 4 4 2 2 4 5 4 5 5 4 5 4 5 7 6 5 6 7 7 8 6 6 11 14 13 11 9 6 8 10 11 11 11 10 9 8 8 8 8 8 8 6 6 5 4 3 3 3
4 5 3 3 3 2 1 3 3 3 2 2 1 2 4 4 4 5 7 9 8 8 8 8 6 6 5 6 10 10 9 9 8 8 6 5 6 10 11 11 10 9 8 7 7 7 6 5 4 3 3 3 2 1
1 2 3 2 1 2 3 2 1 1 2 2 2 4 4 3 4 4 5 10 15 14 12 10 10 10 8 7 6 8 8 9 10 9 8 9 7 9 11 10 10 9 8 8 7 6 5 4 4 4 4 4 3 2
2 3 2 2 2 2 1 1 2 2 3 3 3 3 4 5 3 3 3 4 4 7 12 12 12 12 10 11 11 10 8 7 9 9 9 7 7 9 10 9 9 9 8 7 6 6 5 5 5 5 4 4 3 2
Wind_Direction
238 238 237 235 234 233 231 230 228 223 220 219 218 217 211 207 211 213 224 222 222 207 223 229 236 239 236 215 197 195 104 190 120 187 205 205 195 213 233 257 182 182 183 208 183 224 264 117 95 186 147 68 123 162
239 237 236 233 232 232 231 230 229 224 222 220 217 217 213 209 209 211 221 220 220 229 254 234 230 239 255 253 257 200 240 165 173 145 199 228 220 205 221 268 25 184 182 185 185 215 118 98 122 156 169 138 119 131
243 239 237 235 236 234 235 234 230 227 223 221 219 217 213 212 211 210 218 214 212 222 240 238 251 238 245 246 250 213 239 214 193 198 165 238 216 183 217 239 150 225 145 136 145 191 157 134 133 141 157 154 143 141
241 240 238 238 237 238 239 238 232 228 225 223 221 217 215 215 212 212 217 213 209 210 236 248 246 250 244 265 243 237 221 214 196 196 35 220 197 190 217 222 170 203 130 133 96 139 141 188 176 164 147 143 143 140
225 227 229 231 234 236 232 234 232 230 229 226 223 219 216 214 215 217 216 212 205 197 205 218 249 247 236 234 231 212 214 202 182 137 135 232 270 97 248 94 224 194 161 167 219 185 160 178 167 181 167 158 154 143
198 206 211 213 217 222 227 231 234 235 234 232 226 220 216 211 205 199 203 208 207 201 245 185 211 207 206 193 190 180 189 183 165 178 225 217 190 180 195 202 252 166 185 181 181 170 171 165 173 182 166 167 160 157
154 156 171 195 213 224 235 242 244 237 227 218 213 213 211 207 200 195 196 198 198 195 200 226 203 169 172 169 152 158 172 172 187 207 237 196 194 182 140 197 177 166 154 145 152 145 131 164 170 178 167 163 163 158
133 146 156 156 151 153 120 44 14 217 207 200 192 189 189 190 191 194 194 196 190 183 185 184 194 150 169 158 124 154 184 202 218 217 177 177 151 147 237 152 161 155 146 148 158 191 191 173 171 170 173 162 161 168
115 130 147 165 157 123 89 47 52 104 145 153 171 170 166 172 177 187 190 178 174 182 170 192 187 145 172 159 131 151 157 125 199 164 221 149 207 213 203 163 169 173 167 167 182 167 162 167 164 165 164 171 173 174
101 114 125 130 125 109 83 55 72 76 102 129 134 131 114 153 151 140 153 156 162 204 201 176 167 163 153 134 134 125 194 172 154 235 164 144 237 272 197 195 191 179 181 176 163 158 163 164 168 170 178 186 192 185
81 79 94 110 101 93 84 75 82 84 112 113 98 102 117 130 125 112 141 158 163 190 184 156 162 132 159 124 134 163 173 160 174 242 141 236 250 191 183 186 178 173 182 186 198 192 184 175 171 177 184 190 191 192
78 74 71 85 66 60 58 95 116 110 106 110 114 116 120 121 110 109 169 143 127 146 138 141 134 130 129 142 111 184 141 68 218 140 106 249 245 171 176 169 168 176 173 181 189 179 175 175 179 184 188 190 193 192
93 87 87 85 79 80 97 101 106 107 108 112 105 73 66 20 63 107 148 69 126 136 140 137 126 130 134 105 80 90 111 209 99 63 220 227 155 165 167 166 168 175 171 165 171 169 174 180 187 194 193 194 194 193
97 80 84 83 86 103 111 105 106 106 109 50 45 40 60 29 80 109 132 130 126 134 140 136 105 109 102 68 150 108 239 93 96 205 230 201 161 163 164 168 168 173 171 175 172 175 178 185 189 195 202 202 200 196
83 94 98 85 91 108 122 119 100 103 52 58 42 51 25 338 32 46 88 104 125 130 130 110 73 93 78 107 188 114 127 222 209 218 195 159 165 163 166 170 171 169 166 171 179 184 188 189 193 193 194 194 190 189
84 98 83 87 96 107 113 101 90 68 61 55 49 60 22 65 80 97 110 116 132 131 116 95 107 86 196 152 130 202 173 216 220 159 158 162 163 167 167 172 179 181 181 183 187 191 194 197 199 198 188 186 186 187
86 70 77 85 77 72 82 75 52 51 50 47 30 41 49 62 75 99 119 122 137 133 99 98 91 186 117 121 132 150 188 116 133 131 161 168 169 168 169 179 183 189 189 184 187 188 192 191 194 193 190 182 180 178
68 66 78 88 82 83 66 48 70 61 55 42 53 30 57 74 81 83 81 100 112 93 106 165 126 77 112 134 176 139 113 127 141 146 157 165 167 174 182 185 188 194 198 193 195 199 201 200 199 194 187 184 181 182
58 63 73 59 100 80 55 39 42 77 51 35 37 53 71 71 73 74 89 103 102 98 122 64 60 54 77 88 101 143 154 150 146 152 157 167 178 181 184 190 201 212 215 207 204 204 200 200 198 191 189 190 189 185
50 72 93 55 57 73 66 41 47 76 50 40 53 55 69 58 62 70 89 93 93 67 54 46 34 28 71 106 146 159 165 169 163 153 155 166 174 183 192 205 200 192 184 186 186 186 183 180 180 187 195 191 184 182
68 78 86 92 69 68 77 51 56 71 72 62 58 65 40 49 49 47 44 51 62 35 74 97 93 89 99 114 128 145 158 172 173 175 172 170 179 189 193 191 188 186 189 188 185 181 184 181 168 168 172 180 186 202
64 76 70 57 65 66 63 41 78 99 76 83 52 56 41 30 19 18 35 46 57 37 88 125 123 119 112 112 118 127 125 132 148 159 178 182 179 186 187 183 185 186 187 187 182 181 174 184 193 194 200 202 208 202
76 52 50 40 71 65 41 31 62 40 83 59 68 53 23 30 22 25 73 52 60 102 140 129 121 129 127 132 133 119 131 160 161 166 167 174 179 184 174 180 198 183 175 173 171 176 188 191 191 199 199 201 199 205
57 53 39 45 48 70 55 35 52 47 60 54 65 54 16 353 7 71 73 69 104 109 121 123 136 129 120 121 124 118 124 146 142 137 150 160 164 171 182 193 181 178 180 181 184 192 200 205 207 208 208 211 218 229
57 17 31 1 40 59 42 15 5 46 52 48 70 23 314 347 64 67 87 98 112 125 122 148 161 153 131 135 152 143 127 148 150 152 160 177 176 176 184 188 194 200 199 197 200 204 204 201 200 204 214 228 232 225
66 27 57 17 352 78 157 57 50 129 87 52 26 6 6 71 67 61 66 135 135 144 151 157 163 168 163 191 200 175 168 174 173 168 167 183 196 204 196 190 191 190 197 207 213 201 204 205 210 220 222 222 229 237
44 333 28 31 17 62 54 56 60 76 65 102 287 36 60 62 74 109 129 167 180 180 168 163 181 182 189 193 195 193 186 179 189 195 180 175 185 190 208 211 200 195 189 191 195 212 228 225 218 215 222 224 229 241
51 35 70 359 41 42 104 45 61 52 11 1 60 44 118 140 127 146 208 206 201 207 190 172 173 188 199 206 209 206 195 193 195 184 179 180 182 186 189 193 189 196 202 200 198 194 189 192 207 223 232 235 238 244
48 17 12 13 34 47 42 61 73 40 359 1 102 65 113 97 133 175 165 149 123 175 187 190 195 229 227 208 187 174 190 192 193 184 190 187 180 184 194 199 189 178 182 189 183 183 185 202 216 212 216 227 240 245
21 15 53 39 74 61 43 23 84 13 54 81 100 118 107 127 157 167 141 148 157 167 186 209 242 242 222 188 175 179 189 201 198 209 221 212 200 194 188 187 189 188 186 193 203 201 200 204 205 212 220 214 209 211
11 14 26 51 83 70 31 347 25 23 56 63 76 144 156 176 199 221 200 194 192 196 209 215 215 202 211 213 206 202 204 205 200 193 200 208 198 197 194 190 189 187 187 192 194 191 195 197 196 186 175 173 179 170
58 334 7 44 80 11 23 15 327 292 259 237 213 205 190 195 236 240 240 228 220 217 215 209 209 220 221 222 220 228 237 226 217 207 206 206 195 183 183 183 182 180 180 177 177 180 178 173 165 157 151 146 136 108
31 52 10 344 187 180 136 309 240 239 206 193 192 195 190 199 208 229 229 214 209 219 221 218 216 222 223 219 225 229 230 210 189 180 177 177 170 163 160 162 166 165 167 170 170 163 157 150 146 139 132 122 104 75